• în România
  • Lista ţărilor
  • Pe 7 zile
  • Temperatura apei
  • Hartă satelitară
  • Meteo pe hartă
  • Widget-uri
  • user-avatar
    Intrare

    Meteo pe oră la Petrovo-1

    Astăzi, 20 Iulie, Vineri

    Timp Temperatura Precipitaţii Vânt Presiune Umiditate
    00:00 +18°C° 0 mm 2 m/s 739 mmHg 98%
    01:00 +17°C° 0 mm 2 m/s 739 mmHg 98%
    02:00 +17°C° 0 mm 2 m/s 739 mmHg 98%
    03:00 +17°C° 0 mm 2 m/s 739 mmHg 98%
    04:00 +17°C° 0 mm 2 m/s 739 mmHg 98%
    05:00 +18°C° 0 mm 2 m/s 739 mmHg 98%
    06:00 +18°C° 0,2 mm 2 m/s 739 mmHg 97%
    07:00 +19°C° 0,2 mm 2 m/s 739 mmHg 96%
    08:00 +20°C° 0 mm 3 m/s 738 mmHg 95%
    09:00 +20°C° 0,3 mm 3 m/s 738 mmHg 93%
    10:00 +21°C° 0,3 mm 2 m/s 738 mmHg 92%
    11:00 +23°C° 0,3 mm 2 m/s 738 mmHg 90%
    12:00 +23°C° 0,5 mm 2 m/s 738 mmHg 88%
    13:00 +24°C° 0,5 mm 2 m/s 738 mmHg 85%
    14:00 +25°C° 0,5 mm 2 m/s 737 mmHg 83%
    15:00 +25°C° 0,5 mm 2 m/s 737 mmHg 83%
    16:00 +25°C° 0,5 mm 2 m/s 737 mmHg 84%
    17:00 +25°C° 0,5 mm 2 m/s 737 mmHg 85%
    18:00 +24°C° 0,4 mm 1 m/s 737 mmHg 88%
    19:00 +23°C° 0,4 mm 1 m/s 737 mmHg 92%
    20:00 +22°C° 0,4 mm 1 m/s 737 mmHg 95%
    21:00 +21°C° 0 mm 1 m/s 737 mmHg 96%
    22:00 +21°C° 0 mm 1 m/s 737 mmHg 97%
    23:00 +20°C° 0 mm 1 m/s 737 mmHg 97%

    Mâine, 21 Iulie, Sâmbătă

    Timp Temperatura Precipitaţii Vânt Presiune Umiditate
    00:00 +18°C° 0 mm 0 m/s 737 mmHg 97%
    01:00 +17°C° 0 mm 0 m/s 737 mmHg 97%
    02:00 +17°C° 0 mm 0 m/s 737 mmHg 98%
    03:00 +17°C° 0 mm 0 m/s 738 mmHg 98%
    04:00 +17°C° 0 mm 0 m/s 738 mmHg 98%
    05:00 +18°C° 0 mm 0 m/s 738 mmHg 98%
    06:00 +19°C° 0 mm 0 m/s 738 mmHg 94%
    07:00 +21°C° 0 mm 0 m/s 738 mmHg 91%
    08:00 +22°C° 0 mm 0 m/s 738 mmHg 87%
    09:00 +23°C° 0,3 mm 0 m/s 739 mmHg 83%
    10:00 +24°C° 0,3 mm 0 m/s 739 mmHg 78%
    11:00 +27°C° 0,3 mm 1 m/s 739 mmHg 73%
    12:00 +28°C° 1 mm 1 m/s 739 mmHg 73%
    13:00 +28°C° 1 mm 1 m/s 739 mmHg 73%
    14:00 +28°C° 1 mm 1 m/s 738 mmHg 73%
    15:00 +28°C° 1,6 mm 1 m/s 739 mmHg 77%
    16:00 +27°C° 1,6 mm 1 m/s 739 mmHg 82%
    17:00 +26°C° 1,6 mm 1 m/s 739 mmHg 86%
    18:00 +25°C° 1 mm 1 m/s 739 mmHg 89%
    19:00 +24°C° 1 mm 1 m/s 739 mmHg 91%
    20:00 +23°C° 1 mm 1 m/s 739 mmHg 93%
    21:00 +22°C° 0,6 mm 1 m/s 739 mmHg 94%
    22:00 +21°C° 0,6 mm 1 m/s 739 mmHg 95%
    23:00 +21°C° 0,6 mm 1 m/s 739 mmHg 96%

    Poimâine, 22 Iulie, Duminică

    Timp Temperatura Precipitaţii Vânt Presiune Umiditate
    00:00 +20°C° 0,3 mm 1 m/s 739 mmHg 96%
    01:00 +20°C° 0,3 mm 1 m/s 739 mmHg 97%
    02:00 +20°C° 0,3 mm 1 m/s 739 mmHg 97%
    03:00 +20°C° 0,1 mm 1 m/s 739 mmHg 97%
    04:00 +20°C° 0,1 mm 1 m/s 739 mmHg 97%
    05:00 +20°C° 0,1 mm 1 m/s 739 mmHg 98%
    06:00 +21°C° 0 mm 1 m/s 739 mmHg 95%
    07:00 +21°C° 0 mm 2 m/s 739 mmHg 92%
    08:00 +23°C° 0 mm 2 m/s 739 mmHg 89%
    09:00 +24°C° 0,6 mm 2 m/s 739 mmHg 87%
    10:00 +25°C° 0,6 mm 2 m/s 739 mmHg 85%
    11:00 +25°C° 0,6 mm 2 m/s 739 mmHg 83%
    12:00 +25°C° 0,9 mm 3 m/s 739 mmHg 84%
    13:00 +25°C° 0,9 mm 3 m/s 739 mmHg 84%
    14:00 +25°C° 0,9 mm 3 m/s 739 mmHg 85%
    15:00 +24°C° 0,5 mm 3 m/s 740 mmHg 85%
    16:00 +24°C° 0,5 mm 3 m/s 740 mmHg 85%
    17:00 +24°C° 0,5 mm 3 m/s 740 mmHg 85%
    18:00 +22°C° 0,1 mm 3 m/s 740 mmHg 87%
    19:00 +21°C° 0,1 mm 2 m/s 740 mmHg 90%
    20:00 +21°C° 0,1 mm 2 m/s 740 mmHg 92%
    21:00 +21°C° 0 mm 2 m/s 740 mmHg 93%
    22:00 +20°C° 0 mm 2 m/s 740 mmHg 94%
    23:00 +20°C° 0 mm 2 m/s 740 mmHg 95%

    23 Iulie, Luni

    Timp Temperatura Precipitaţii Vânt Presiune Umiditate
    00:00 +20°C° 0,1 mm 2 m/s 740 mmHg 96%
    01:00 +20°C° 0,1 mm 2 m/s 740 mmHg 96%
    02:00 +20°C° 0,1 mm 2 m/s 740 mmHg 97%
    03:00 +20°C° 0 mm 2 m/s 740 mmHg 97%
    04:00 +19°C° 0 mm 2 m/s 740 mmHg 97%
    05:00 +19°C° 0 mm 3 m/s 740 mmHg 97%
    06:00 +19°C° 0 mm 3 m/s 740 mmHg 95%
    07:00 +19°C° 0 mm 3 m/s 740 mmHg 94%
    08:00 +20°C° 0 mm 3 m/s 740 mmHg 92%
    09:00 +20°C° 0,1 mm 3 m/s 741 mmHg 90%
    10:00 +21°C° 0,1 mm 3 m/s 741 mmHg 88%
    11:00 +21°C° 0,1 mm 3 m/s 741 mmHg 86%
    12:00 +22°C° 0,1 mm 3 m/s 741 mmHg 84%
    13:00 +23°C° 0,1 mm 2 m/s 741 mmHg 82%
    14:00 +24°C° 0,1 mm 2 m/s 741 mmHg 80%
    15:00 +24°C° 0,1 mm 2 m/s 741 mmHg 80%
    16:00 +24°C° 0,1 mm 2 m/s 741 mmHg 81%
    17:00 +24°C° 0,1 mm 2 m/s 741 mmHg 81%
    18:00 +23°C° 0,1 mm 2 m/s 741 mmHg 85%
    19:00 +21°C° 0,1 mm 2 m/s 741 mmHg 89%
    20:00 +20°C° 0,1 mm 2 m/s 741 mmHg 93%
    21:00 +20°C° 0 mm 2 m/s 741 mmHg 95%
    22:00 +19°C° 0 mm 2 m/s 741 mmHg 96%
    23:00 +18°C° 0 mm 2 m/s 741 mmHg 98%

    24 Iulie, Marţi

    Timp Temperatura Precipitaţii Vânt Presiune Umiditate
    00:00 +18°C° 0 mm 2 m/s 741 mmHg 98%
    01:00 +18°C° 0 mm 2 m/s 741 mmHg 98%
    02:00 +18°C° 0 mm 2 m/s 741 mmHg 98%
    03:00 +18°C° 0 mm 2 m/s 741 mmHg 98%
    04:00 +18°C° 0 mm 2 m/s 741 mmHg 98%
    05:00 +18°C° 0 mm 2 m/s 741 mmHg 97%
    06:00 +18°C° 0 mm 2 m/s 741 mmHg 96%
    07:00 +19°C° 0 mm 3 m/s 742 mmHg 94%
    08:00 +19°C° 0 mm 3 m/s 742 mmHg 92%
    09:00 +20°C° 0 mm 3 m/s 742 mmHg 88%
    10:00 +21°C° 0 mm 2 m/s 742 mmHg 84%
    11:00 +23°C° 0 mm 2 m/s 742 mmHg 80%
    12:00 +24°C° 0,1 mm 3 m/s 742 mmHg 77%
    13:00 +24°C° 0,1 mm 3 m/s 742 mmHg 75%
    14:00 +25°C° 0,1 mm 3 m/s 742 mmHg 72%
    15:00 +25°C° 0 mm 3 m/s 742 mmHg 73%
    16:00 +25°C° 0 mm 3 m/s 742 mmHg 74%
    17:00 +25°C° 0 mm 4 m/s 742 mmHg 75%
    18:00 +24°C° 0 mm 3 m/s 742 mmHg 80%
    19:00 +22°C° 0 mm 3 m/s 742 mmHg 85%
    20:00 +21°C° 0 mm 3 m/s 742 mmHg 90%
    21:00 +20°C° 0 mm 3 m/s 742 mmHg 92%
    22:00 +19°C° 0 mm 3 m/s 742 mmHg 95%
    23:00 +19°C° 0 mm 3 m/s 742 mmHg 97%

    25 Iulie, Miercuri

    Timp Temperatura Precipitaţii Vânt Presiune Umiditate
    00:00 +19°C° 0 mm 3 m/s 742 mmHg 97%
    01:00 +19°C° 0 mm 3 m/s 742 mmHg 98%
    02:00 +18°C° 0 mm 2 m/s 742 mmHg 98%
    03:00 +19°C° 0 mm 2 m/s 742 mmHg 97%
    04:00 +19°C° 0 mm 2 m/s 743 mmHg 97%
    05:00 +19°C° 0 mm 2 m/s 743 mmHg 96%
    06:00 +19°C° 0 mm 2 m/s 743 mmHg 95%
    07:00 +20°C° 0 mm 2 m/s 743 mmHg 93%
    08:00 +21°C° 0 mm 2 m/s 743 mmHg 92%
    09:00 +23°C° 0 mm 2 m/s 743 mmHg 86%
    10:00 +24°C° 0 mm 2 m/s 743 mmHg 80%
    11:00 +26°C° 0 mm 2 m/s 743 mmHg 74%
    12:00 +27°C° 0 mm 2 m/s 743 mmHg 68%
    13:00 +28°C° 0 mm 2 m/s 743 mmHg 62%
    14:00 +30°C° 0 mm 2 m/s 743 mmHg 57%
    15:00 +29°C° 0,4 mm 2 m/s 743 mmHg 61%
    16:00 +29°C° 0,4 mm 2 m/s 743 mmHg 66%
    17:00 +28°C° 0,4 mm 2 m/s 743 mmHg 70%
    18:00 +26°C° 0,2 mm 2 m/s 743 mmHg 77%
    19:00 +25°C° 0,2 mm 2 m/s 743 mmHg 84%
    20:00 +23°C° 0,2 mm 2 m/s 743 mmHg 91%
    21:00 +21°C° 0 mm 2 m/s 744 mmHg 92%
    22:00 +21°C° 0 mm 3 m/s 744 mmHg 94%
    23:00 +20°C° 0 mm 3 m/s 744 mmHg 95%
    Arată mai mult